Theta_e
298 289 285 289 292 289 291 288 284 286 291 292 292 294 298 298 295 295 295 295 296 297 301 303 304 313 315 318 320 324 326 330 330 328 327 327 327 328 329 331 330 329 330 331
292 286 289 293 294 293 289 285 282 287 292 291 288 290 295 293 294 295 295 295 296 296 299 301 301 305 311 313 314 314 320 324 330 330 329 327 328 327 331 331 330 331 329 330
289 291 293 292 290 290 289 286 284 284 287 286 285 283 287 291 293 294 295 296 296 298 299 299 299 302 304 306 308 309 310 315 324 326 323 321 322 321 323 325 328 329 329 330
290 295 292 288 287 290 285 290 289 287 284 279 283 275 281 285 286 289 292 291 295 297 298 299 299 298 299 302 304 306 307 306 307 309 316 318 322 320 320 323 326 327 328 327
287 290 290 287 288 289 286 290 289 288 283 281 279 276 281 283 283 285 287 290 293 296 296 298 299 299 303 305 305 307 309 309 311 311 309 310 314 318 319 320 322 323 323 324
290 294 292 290 292 292 291 288 287 285 283 276 281 279 278 282 284 286 288 289 292 293 293 294 297 303 305 306 307 307 306 303 305 306 309 309 310 314 316 316 317 315 310 309
289 289 291 292 288 290 289 285 273 270 269 273 280 279 283 286 286 287 288 288 290 291 294 298 300 302 302 302 301 302 301 298 299 301 301 303 305 309 312 311 310 305 302 303
282 280 289 292 288 286 287 285 277 270 270 274 281 276 281 290 293 293 291 291 292 292 296 297 298 299 299 299 297 297 297 295 296 296 296 297 297 297 297 297 298 297 297 297
281 281 289 291 292 291 285 283 286 280 276 274 277 280 285 289 290 290 290 290 291 290 295 296 296 296 295 294 294 293 293 292 292 292 293 293 294 294 293 294 295 295 297 297
286 279 288 290 292 292 289 290 280 280 266 266 276 276 279 283 287 288 289 289 291 293 294 294 293 292 291 291 291 291 291 291 290 290 290 290 291 293 294 294 293 293 293 294
288 284 283 288 286 286 287 285 285 283 278 273 271 275 282 286 289 289 289 290 292 293 294 292 291 290 289 288 288 288 289 289 287 287 287 287 287 288 288 289 290 290 290 291
289 285 281 284 289 293 291 287 287 280 277 280 278 276 285 286 287 288 290 290 293 293 292 290 288 287 286 286 286 286 287 286 285 285 285 285 285 285 285 286 286 287 287 288
288 283 277 279 285 288 286 288 288 287 281 279 275 278 288 289 285 287 289 288 291 292 289 288 286 286 285 284 284 284 285 283 283 283 283 282 282 282 283 283 284 284 284 284
287 285 281 276 279 284 283 286 287 286 281 281 280 282 284 285 286 286 288 290 290 289 289 287 286 285 284 284 283 283 282 283 282 281 281 280 280 280 281 281 281 282 282 282
285 277 280 280 281 282 284 285 286 285 286 281 284 283 287 288 289 288 288 290 290 289 287 287 287 285 283 282 282 282 281 281 281 280 280 279 280 280 280 280 280 280 280 280
286 271 278 277 282 281 280 283 286 286 287 286 286 285 291 291 290 289 289 288 289 289 289 289 287 284 283 283 281 281 279 279 279 279 278 279 279 279 279 279 278 279 278 278
283 279 275 272 279 279 274 279 280 284 289 288 283 288 292 291 290 290 290 289 290 291 291 289 287 286 285 283 282 280 279 279 278 279 278 278 278 278 277 277 277 277 276 276
280 276 277 270 273 267 276 284 286 284 286 289 289 290 291 292 294 295 295 292 292 293 292 291 290 289 286 282 280 279 278 278 278 277 277 277 277 277 276 276 276 275 276 275
284 278 268 268 262 273 277 280 281 282 282 288 288 290 291 292 293 291 293 294 295 294 295 294 293 290 282 280 279 278 277 277 277 276 276 276 277 276 275 275 274 275 275 276
282 283 277 266 265 265 275 281 286 286 278 286 288 289 289 290 284 288 294 291 292 294 295 293 288 282 280 279 279 278 277 276 275 275 275 276 276 275 274 274 274 275 275 275
276 277 274 274 272 273 281 281 284 276 278 284 286 289 289 287 289 291 287 288 287 287 287 281 280 280 279 278 279 277 276 275 275 275 274 274 274 274 274 274 274 274 274 274
272 269 273 275 272 269 282 282 281 284 285 282 281 284 285 285 284 283 278 280 279 278 278 278 277 277 277 278 278 275 274 274 273 272 272 272 272 273 274 273 273 273 273 272
270 277 272 277 276 282 282 283 284 281 281 282 280 280 279 279 280 278 276 274 274 274 275 275 275 275 275 276 276 274 271 272 271 270 270 271 272 273 273 272 271 271 271 270
276 280 277 276 281 282 284 283 281 280 279 279 278 277 277 277 278 277 274 273 272 272 272 273 273 272 271 272 273 271 271 271 270 269 269 270 270 270 271 272 271 270 269 269
277 277 274 275 281 281 282 283 280 279 278 277 276 277 277 276 277 275 274 272 272 272 271 272 271 270 269 270 270 270 270 270 269 269 269 269 269 269 269 269 270 269 270 270
278 279 277 277 282 281 282 279 277 276 277 276 275 275 276 276 275 274 272 272 271 270 270 269 269 268 267 267 267 268 269 270 269 268 268 268 268 268 268 268 268 271 271 271
Wind_Speed
2 4 11 11 10 3 6 4 6 3 5 4 11 9 18 9 4 9 9 8 8 9 9 9 9 9 8 5 8 11 11 11 9 6 6 5 8 7 6 7 8 7 7 9
2 11 5 3 4 5 3 4 3 4 1 5 4 11 14 8 8 9 8 9 10 6 8 8 7 7 10 9 11 8 10 10 11 8 6 4 6 6 8 7 8 10 9 9
5 4 12 8 5 10 10 6 4 4 3 2 4 8 11 8 9 11 11 12 8 14 13 9 8 8 6 7 9 9 9 11 11 12 4 2 2 2 3 3 5 8 8 9
8 8 7 6 9 8 9 8 7 5 3 5 2 8 7 7 11 7 12 10 16 16 9 10 8 7 8 8 4 5 5 3 2 6 5 7 8 8 5 5 6 7 9 8
8 6 10 12 8 9 5 7 8 5 3 2 2 2 7 3 6 10 11 13 17 17 12 12 10 8 4 5 5 6 7 6 3 3 4 5 6 5 3 3 6 5 3 2
6 1 7 7 5 7 5 6 7 5 3 6 11 7 6 7 7 6 8 10 13 14 8 6 3 6 5 5 6 6 6 5 5 5 4 3 6 5 4 3 2 4 4 4
6 14 3 4 7 4 6 9 1 3 2 9 2 8 15 6 6 8 9 8 9 6 9 9 11 9 7 7 6 6 6 5 5 6 5 4 3 3 5 4 4 6 4 3
10 6 15 6 6 7 13 12 7 9 6 4 5 12 8 14 16 15 10 10 8 7 8 8 8 8 7 7 7 7 7 6 5 5 5 5 6 4 5 6 5 5 5 5
9 9 3 6 5 13 7 9 6 4 2 2 6 8 9 10 9 9 12 9 12 5 7 10 8 7 7 7 7 7 7 7 6 6 5 6 5 6 7 7 7 5 6 6
4 3 6 9 5 7 9 9 7 1 4 5 6 6 8 2 9 6 5 7 5 5 8 7 7 7 5 6 6 7 6 7 6 6 5 5 6 6 7 7 8 7 7 6
5 3 1 8 13 19 7 11 5 5 6 6 2 8 9 15 12 10 8 5 6 9 10 9 7 6 6 6 6 6 6 7 6 6 5 6 6 7 7 7 7 7 7 7
11 6 9 12 4 17 18 13 17 8 11 9 3 9 3 1 1 6 8 5 6 4 4 5 6 7 6 6 6 7 6 7 5 5 6 6 6 6 7 7 8 7 8 7
6 7 9 3 6 6 11 16 13 16 3 13 6 9 4 8 2 3 2 3 6 10 8 7 7 7 7 6 6 6 6 7 6 6 6 6 6 6 8 8 8 7 7 7
1 4 6 15 7 3 7 9 14 15 12 16 16 24 8 4 5 2 2 4 5 6 7 7 7 8 7 7 7 7 6 6 6 6 6 6 6 6 6 6 7 7 6 8
4 4 3 7 8 13 13 19 18 23 22 17 26 26 17 13 11 6 8 5 5 6 7 11 12 10 9 9 7 7 7 7 7 8 7 6 6 6 6 7 7 6 7 7
4 4 4 3 2 4 10 11 12 21 24 20 24 27 12 10 7 8 9 5 6 9 12 13 8 9 13 14 12 10 10 9 9 9 9 7 7 6 6 7 7 8 7 7
4 2 2 2 5 4 7 14 11 11 16 19 26 32 19 20 11 9 9 8 11 14 15 12 16 18 16 16 14 13 11 10 9 9 8 8 8 8 7 6 6 7 6 6
4 3 3 4 3 5 11 8 12 15 17 18 20 21 18 20 20 17 11 11 16 15 14 15 15 15 14 11 12 12 12 11 10 9 9 8 7 8 7 6 6 6 5 6
13 4 3 3 5 7 9 8 9 10 16 19 23 27 26 24 18 17 17 18 20 17 18 18 18 14 10 15 15 15 14 12 11 10 9 8 8 8 8 7 6 5 6 6
9 9 5 2 5 8 10 9 13 3 11 13 16 22 24 21 11 19 23 8 14 16 16 13 11 10 14 15 17 16 14 13 12 11 11 9 8 8 7 7 6 4 5 6
3 4 13 14 8 7 15 5 5 6 7 7 8 18 20 15 15 13 4 5 3 6 6 5 11 14 15 16 17 15 14 13 12 12 10 9 8 7 7 7 6 5 5 6
7 5 4 4 7 8 1 3 5 5 7 6 3 5 9 9 8 6 3 5 6 3 3 6 10 10 12 15 16 16 15 13 13 13 11 9 9 6 6 7 6 6 7 7
4 8 6 9 7 8 5 7 4 5 8 6 4 5 5 8 6 4 5 2 1 2 4 4 8 10 9 10 13 16 13 14 13 12 11 9 8 8 8 7 7 6 6 5
6 6 5 4 12 13 12 7 4 6 7 6 6 7 6 10 8 6 4 3 3 4 3 5 9 10 7 8 10 12 13 13 13 12 10 9 9 8 7 6 6 5 5 5
6 3 4 7 15 8 11 7 2 5 6 7 4 6 9 7 9 5 4 4 4 5 5 5 8 9 9 9 10 10 12 12 12 11 10 9 7 8 7 6 5 5 4 4
7 11 6 13 14 7 13 3 0 4 6 6 6 5 6 7 7 5 4 3 4 5 5 7 7 9 9 9 9 9 9 11 12 11 8 7 7 6 6 6 6 8 7 6
Wind_Direction
195 146 203 193 200 127 143 161 171 214 255 171 226 223 241 250 240 268 259 255 253 232 242 246 235 225 223 214 184 184 179 190 171 170 175 201 218 218 224 227 218 212 209 198
122 235 211 195 205 205 158 157 206 287 306 183 254 253 254 227 243 232 237 247 241 260 263 247 246 214 199 197 202 196 188 181 186 184 191 176 185 211 212 209 213 219 214 216
197 224 176 191 189 202 225 191 183 202 352 337 6 278 253 235 224 247 241 237 233 230 240 240 231 229 206 218 202 194 199 186 187 190 162 118 91 53 133 204 220 222 209 216
241 246 196 182 211 178 216 179 184 209 134 230 110 277 265 229 235 232 247 230 235 235 230 228 225 214 212 228 205 188 176 174 177 167 173 186 208 213 199 188 202 201 201 207
214 196 197 210 187 181 206 161 181 172 147 66 236 308 258 270 258 253 242 231 233 233 213 217 224 206 161 137 146 122 106 87 62 129 170 187 205 216 200 200 191 190 152 60
226 191 187 195 169 183 153 90 48 50 99 256 218 192 234 204 197 248 242 233 228 230 218 190 147 131 123 101 96 106 100 69 57 63 37 224 217 216 185 183 148 88 85 70
185 246 257 184 153 153 169 138 31 1 336 235 263 200 249 232 243 231 242 269 260 206 171 163 158 155 138 132 117 107 101 80 65 72 66 62 77 102 122 102 113 120 103 77
195 210 221 194 197 171 193 181 155 189 201 230 150 232 247 236 241 239 229 236 272 189 183 155 130 139 148 139 122 115 116 110 92 86 77 68 69 74 80 90 98 95 98 91
193 240 250 200 175 170 194 200 178 105 45 68 215 286 291 261 266 230 232 227 234 188 149 147 152 147 135 128 127 128 119 108 99 93 84 74 74 82 92 85 82 87 98 96
227 246 196 207 160 219 186 160 188 84 141 251 262 264 237 310 257 275 250 215 167 139 145 149 149 144 140 136 125 114 111 114 109 96 84 75 69 76 88 89 87 86 84 89
238 172 284 140 201 192 175 197 187 154 166 194 266 257 216 210 210 221 237 227 190 171 170 160 157 145 131 121 120 116 105 108 92 84 79 78 67 66 67 78 76 76 76 74
200 221 228 224 257 214 206 209 196 194 220 233 262 260 314 184 182 202 258 178 155 173 153 140 141 146 150 140 135 135 127 115 105 94 90 86 86 81 83 81 81 73 80 69
341 225 234 244 286 290 211 214 214 219 50 215 192 256 203 232 176 267 221 196 195 167 152 155 164 173 167 161 154 146 137 123 117 111 104 89 79 85 91 89 85 74 77 71
250 275 225 239 270 200 212 202 215 217 227 236 226 248 230 265 247 212 291 209 186 169 175 174 183 187 172 173 165 150 142 139 129 113 103 97 90 92 95 92 85 83 78 83
191 248 267 288 276 297 293 221 210 217 232 236 238 246 237 232 251 240 197 224 163 187 198 204 200 191 180 177 173 160 145 137 132 123 120 122 119 108 103 97 93 88 89 85
187 257 232 323 201 356 308 296 271 225 228 233 249 262 254 248 240 238 246 220 196 219 221 217 199 187 193 189 182 166 159 151 143 141 141 136 125 118 115 112 109 105 99 94
197 226 358 239 276 265 282 240 232 255 245 231 237 244 256 260 241 234 244 208 211 220 224 204 200 202 201 195 177 172 156 145 145 144 145 144 142 136 131 122 115 109 107 105
224 172 182 252 120 215 236 220 208 211 231 226 245 257 252 256 254 253 238 222 233 225 219 219 214 211 201 171 161 147 149 149 147 145 145 143 137 128 121 113 107 102 101 101
216 159 253 196 186 283 300 243 197 191 237 233 236 245 251 255 258 262 236 227 236 229 225 221 214 206 161 165 156 151 151 150 149 151 148 142 140 135 133 126 122 118 115 108
190 214 198 91 218 221 249 263 245 0 267 254 229 242 249 255 259 259 257 213 229 230 230 219 187 154 159 163 156 153 157 154 155 149 145 139 136 135 126 126 125 118 121 128
165 198 214 223 233 267 253 268 153 179 250 351 290 253 261 254 234 265 306 250 233 254 226 125 148 167 164 155 153 156 153 159 144 132 126 121 119 122 134 132 136 126 123 123
172 162 199 228 216 252 250 122 179 214 305 276 263 271 280 275 299 293 339 301 307 256 145 148 144 149 153 157 153 152 154 142 135 131 128 127 130 132 135 131 131 133 137 134
258 192 199 188 219 232 228 233 190 173 233 274 290 301 307 287 285 288 295 205 138 107 109 103 127 129 140 152 154 145 140 135 132 129 133 133 128 134 141 145 141 142 149 148
257 184 208 62 265 268 272 281 250 191 219 252 264 287 290 281 297 273 246 182 138 111 101 118 127 125 118 125 128 130 139 136 133 137 141 141 142 144 143 145 154 161 157 155
211 121 205 241 262 236 247 226 245 294 306 299 263 248 263 283 281 245 215 182 146 141 133 133 132 128 121 113 117 133 138 139 138 140 146 151 148 149 145 145 156 154 145 161
189 219 214 253 262 235 277 128 276 291 286 281 286 278 255 254 257 193 177 151 131 145 136 124 126 129 129 124 126 130 141 149 148 146 153 157 152 147 148 148 142 152 150 141